{"data":{"norad_id":57192,"epoch":"2026-09-19T22:51:57.830688Z","epoch_age_seconds":61686,"freshness":"FRESH","line1":"1 57192U 23091AC  26262.95275267  .00006645  00000+0  24950-3 0  9993","line2":"2 57192  97.4971 326.4254 0012362 128.5537 231.6812 15.27467606178748","mean_motion":15.27467606,"eccentricity":0.0012362,"inclination_deg":97.4971,"raan_deg":326.4254,"arg_perigee_deg":128.5537,"mean_anomaly_deg":231.6812,"bstar":0.0002495,"rev_number":17874,"period_min":94.273685042064,"perigee_km":474.9034504274,"apogee_km":491.86787906372,"semimajor_km":6861.5226647456,"source":"CELESTRAK","updated_at":"2026-09-20T09:00:48.035776Z"}}